Weather History for K06D - December, 2012

Change the Weather History Date:

Thursday, December 27, 2012

  Actual Average (KRUG) Record (KRUG)
Temperature  
Mean Temperature 4 °F -  
Max Temperature 8 °F 19 °F 45 °F (1980)
Min Temperature 0 °F -1 °F -33 °F (1990)
Degree Days  
Heating Degree Days 61    
Moisture  
Dew Point 5 °F    
Average Humidity 93    
Maximum Humidity 100    
Minimum Humidity 85    
Precipitation  
Precipitation 0.02 in - - ()
Sea Level Pressure  
Sea Level Pressure 30.09 in    
Wind  
Wind Speed 7 mph (SSE)    
Max Wind Speed 12 mph    
Max Gust Speed -    
Visibility 9 miles    
Events Snow    
Averages and records for this station are not official NWS values.
T = Trace of Precipitation, MM = Missing Value Source: NWS Daily Summary

Daily Weather History Graph

Daily Weather History Graph

Search for Another Location

Airport or City:

Trip Planner

Search our weather history database for the weather conditions in past years. The results will help you decide how hot, cold, wet, or windy it might be!

Date:

Astronomy

Dec. 27, 2012 Rise Set
Actual Time 8:31 AM CST 4:48 PM CST
Civil Twilight 7:54 AM CST 5:25 PM CST
Nautical Twilight 7:14 AM CST 6:05 PM CST
Astronomical Twilight 6:35 AM CST 6:44 PM CST
Moon 4:36 PM CST (12/27) 7:41 AM CST (12/27)
Length of Visible Light 9h 30m
Length of Day
8h 16m
Full, 100% of the Moon is Illuminated
Dec 27
Full
Dec 28
Full
Jan 4
Last Quarter
Jan 11
New
Jan 18
First Quarter

Hourly Weather History & Observations

Time (CST) Temp. Windchill Dew Point Humidity Pressure Visibility Wind Dir Wind Speed Gust Speed Precip Events Conditions
12:15 AM 5.0 °F -4.1 °F 1.4 °F 85% 30.15 in 10.0 mi SSE 4.6 mph - N/A Snow Light Snow
12:35 AM 5.0 °F -6.9 °F 1.4 °F 85% 30.15 in 10.0 mi South 6.9 mph - N/A   Overcast
12:55 AM 5.0 °F -10.0 °F 3.2 °F 92% 30.14 in 10.0 mi SSE 10.4 mph - N/A Snow Light Snow
1:15 AM 6.8 °F -4.8 °F 5.0 °F 92% 30.14 in 10.0 mi South 6.9 mph - N/A   Overcast
1:35 AM 6.8 °F -6.9 °F 5.0 °F 92% 30.13 in 10.0 mi SSE 9.2 mph - N/A   Overcast
1:55 AM 6.8 °F -5.9 °F 5.0 °F 92% 30.13 in 10.0 mi SSE 8.1 mph - N/A   Overcast
2:15 AM 6.8 °F -5.9 °F 5.0 °F 92% 30.14 in 10.0 mi SSE 8.1 mph - N/A Snow Light Snow
2:35 AM 6.8 °F -5.9 °F 5.0 °F 92% 30.14 in 10.0 mi SSE 8.1 mph - N/A Snow Light Snow
2:55 AM 6.8 °F -5.9 °F 5.0 °F 92% 30.14 in 10.0 mi SSE 8.1 mph - N/A   Overcast
3:15 AM 6.8 °F -6.9 °F 5.0 °F 92% 30.13 in 10.0 mi SSE 9.2 mph - N/A   Overcast
3:55 AM 6.8 °F -3.5 °F 5.0 °F 92% 30.13 in 10.0 mi SSE 5.8 mph - N/A   Overcast
4:15 AM 6.8 °F -2.0 °F 5.0 °F 92% 30.12 in 10.0 mi SSE 4.6 mph - N/A   Overcast
4:35 AM 6.8 °F -3.5 °F 5.0 °F 92% 30.12 in 10.0 mi SE 5.8 mph - N/A   Overcast
4:55 AM 6.8 °F -4.8 °F 5.0 °F 92% 30.12 in 10.0 mi SSE 6.9 mph - N/A Snow Light Snow
5:15 AM 6.8 °F -2.0 °F 5.0 °F 92% 30.11 in 10.0 mi SE 4.6 mph - N/A   Overcast
5:35 AM 6.8 °F -0.1 °F 5.0 °F 92% 30.11 in 10.0 mi SE 3.5 mph - N/A   Overcast
6:15 AM 6.8 °F -4.8 °F 5.0 °F 92% 30.11 in 10.0 mi SE 6.9 mph - N/A Snow Light Snow
6:35 AM 6.8 °F -3.5 °F 5.0 °F 92% 30.11 in 10.0 mi SE 5.8 mph - N/A Snow Light Snow
6:55 AM 6.8 °F -3.5 °F 5.0 °F 92% 30.11 in 10.0 mi SE 5.8 mph - N/A   Overcast
7:15 AM 6.8 °F -5.9 °F 5.0 °F 92% 30.10 in 10.0 mi SE 8.1 mph - N/A   Overcast
7:35 AM 6.8 °F -5.9 °F 5.0 °F 92% 30.11 in 10.0 mi SE 8.1 mph - N/A   Overcast
7:55 AM 6.8 °F -5.9 °F 5.0 °F 92% 30.11 in 10.0 mi SE 8.1 mph - N/A   Overcast
8:15 AM 6.8 °F -7.8 °F 5.0 °F 92% 30.11 in 10.0 mi SSE 10.4 mph - N/A   Overcast
8:35 AM 6.8 °F -4.8 °F 5.0 °F 92% 30.11 in 10.0 mi SSE 6.9 mph - N/A   Overcast
8:55 AM 6.8 °F -4.8 °F 5.0 °F 92% 30.11 in 10.0 mi SSE 6.9 mph - N/A   Overcast
9:15 AM 6.8 °F -4.8 °F 5.0 °F 92% 30.12 in 10.0 mi SSE 6.9 mph - N/A   Overcast
9:35 AM 6.8 °F -4.8 °F 6.8 °F 100% 30.12 in 10.0 mi SE 6.9 mph - N/A   Overcast
9:55 AM 6.8 °F -6.9 °F 6.8 °F 100% 30.12 in 10.0 mi SE 9.2 mph - N/A   Overcast
10:15 AM 6.8 °F -5.9 °F 6.8 °F 100% 30.12 in 10.0 mi SE 8.1 mph - N/A   Mostly Cloudy
10:35 AM 6.8 °F -5.9 °F 6.8 °F 100% 30.12 in 10.0 mi SE 8.1 mph - N/A   Mostly Cloudy
10:55 AM 6.8 °F -6.9 °F 6.8 °F 100% 30.12 in 10.0 mi SSE 9.2 mph - N/A Snow Light Snow
11:15 AM 6.8 °F -6.9 °F 6.8 °F 100% 30.11 in 9.0 mi SSE 9.2 mph - N/A Snow Light Snow
11:35 AM 6.8 °F -5.9 °F 6.8 °F 100% 30.11 in 10.0 mi SSE 8.1 mph - N/A   Scattered Clouds
11:55 AM 6.8 °F -5.9 °F 6.8 °F 100% 30.10 in 3.0 mi SSE 8.1 mph - N/A Snow Light Snow
12:15 PM 8.6 °F -3.7 °F 6.8 °F 92% 30.09 in 4.0 mi SSE 8.1 mph - N/A Snow Light Snow
12:35 PM 8.6 °F -5.5 °F 6.8 °F 92% 30.08 in 7.0 mi SSE 10.4 mph - N/A Snow Light Snow
12:55 PM 8.6 °F -4.7 °F 6.8 °F 92% 30.08 in 3.0 mi SSE 9.2 mph - N/A Snow Light Snow
1:15 PM 8.6 °F -5.5 °F 6.8 °F 92% 30.07 in 2.5 mi SSE 10.4 mph - N/A Snow Light Snow
1:35 PM 8.6 °F -4.7 °F 6.8 °F 92% 30.06 in 6.0 mi SSE 9.2 mph - 0.01 in Snow Light Snow
1:55 PM 8.6 °F -3.7 °F 6.8 °F 92% 30.06 in 10.0 mi SSE 8.1 mph - 0.01 in Snow Light Snow
2:35 PM 8.6 °F -2.6 °F 6.8 °F 92% 30.05 in 2.0 mi SSE 6.9 mph - 0.01 in Snow Light Snow
2:55 PM 8.6 °F -4.7 °F 6.8 °F 92% 30.05 in 8.0 mi SSE 9.2 mph - 0.01 in Snow Light Snow
3:15 PM 8.6 °F -3.7 °F 6.8 °F 92% 30.05 in 9.0 mi SSE 8.1 mph - N/A   Overcast
3:35 PM 8.6 °F -1.3 °F 6.8 °F 92% 30.06 in 9.0 mi SSE 5.8 mph - N/A   Overcast
3:55 PM 8.6 °F -1.3 °F 6.8 °F 92% 30.05 in 2.0 mi SSE 5.8 mph - N/A Snow Light Snow
4:15 PM 8.6 °F -2.6 °F 6.8 °F 92% 30.06 in 4.0 mi SSE 6.9 mph - N/A Snow Light Snow
4:35 PM 8.6 °F -1.3 °F 6.8 °F 92% 30.06 in 7.0 mi SSE 5.8 mph - N/A   Overcast
4:55 PM 8.6 °F -2.6 °F 6.8 °F 92% 30.06 in 8.0 mi SSE 6.9 mph - N/A   Overcast
5:15 PM 8.6 °F -2.6 °F 6.8 °F 92% 30.06 in 8.0 mi SSE 6.9 mph - N/A   Overcast
5:35 PM 8.6 °F -3.7 °F 6.8 °F 92% 30.06 in 5.0 mi South 8.1 mph - N/A   Overcast
5:55 PM 8.6 °F -2.6 °F 6.8 °F 92% 30.06 in 7.0 mi South 6.9 mph - N/A   Overcast
6:15 PM 6.8 °F -4.8 °F 6.8 °F 100% 30.06 in 10.0 mi South 6.9 mph - N/A   Overcast
6:35 PM 6.8 °F -3.5 °F 6.8 °F 100% 30.06 in 10.0 mi South 5.8 mph - N/A   Overcast
6:55 PM 6.8 °F -4.8 °F 6.8 °F 100% 30.05 in 10.0 mi South 6.9 mph - N/A   Overcast
7:15 PM 6.8 °F -5.9 °F 5.0 °F 92% 30.05 in 10.0 mi South 8.1 mph - N/A   Overcast
7:35 PM 3.2 °F -7.8 °F 1.4 °F 92% 30.05 in 10.0 mi SSW 5.8 mph - N/A   Overcast
7:55 PM 1.4 °F -12.5 °F -0.4 °F 92% 30.05 in 10.0 mi SSW 8.1 mph - N/A   Overcast
8:15 PM -0.4 °F -13.4 °F -2.2 °F 92% 30.04 in 10.0 mi South 6.9 mph - N/A Snow Light Snow
8:35 PM -0.4 °F -14.7 °F -2.2 °F 92% 30.04 in 10.0 mi SSW 8.1 mph - N/A   Overcast
8:55 PM -0.4 °F -15.7 °F -2.2 °F 92% 30.04 in 10.0 mi SSW 9.2 mph - N/A   Overcast
9:15 PM 1.4 °F -11.3 °F -0.4 °F 92% 30.04 in 10.0 mi SSW 6.9 mph - N/A   Overcast
9:35 PM 1.4 °F -12.5 °F -0.4 °F 92% 30.04 in 10.0 mi SSW 8.1 mph - N/A   Overcast
9:55 PM 5.0 °F -10.0 °F 3.2 °F 92% 30.03 in 10.0 mi SSW 10.4 mph - N/A   Overcast
10:15 PM 5.0 °F -10.8 °F 5.0 °F 100% 30.03 in 10.0 mi SSW 11.5 mph - N/A   Overcast
10:35 PM 6.8 °F -7.8 °F 5.0 °F 92% 30.03 in 10.0 mi SSW 10.4 mph - N/A   Overcast
11:35 PM 6.8 °F -7.8 °F 5.0 °F 92% 30.03 in 9.0 mi SW 10.4 mph - N/A   Overcast
11:55 PM 6.8 °F -7.8 °F 6.8 °F 100% 30.03 in 5.0 mi SW 10.4 mph - N/A Snow Light Snow